[[{"header":{"parameterUnit":"m.s-1","parameterCategory":1,"la1":30.2991,"la2":30.254,"lo1":-89.0895,"lo2":-89.0444,"dy":0.0017,"dx":0.0017,"nx":28,"ny":28,"refTime":"2024-04-14T09:00:00:Z","depth":0,"parameterNumber":2,"parameterNumberName":"U-component_of_WINDS"},"data":[0,0,0,0,0,0,0,0,0,0,0,0,0,0,0,0,0,0,0,0,0,0,0,0,0,0,0,0,0,0,0,0,0,0,0,0,0,0,0,0,0,0,0,0,0,0,0,0,0,0,0,0,0,0,0,0,0,0,-2.1342,-2.1342,0,-2.1328,-2.1327,-2.1327,-2.1266,-2.1264,-2.1263,-2.1261,-2.1248,-2.1249,-2.125,0,0,0,0,0,0,0,0,0,0,0,0,0,-2.1318,-2.1319,-2.1342,-2.1342,-2.1341,-2.1328,-2.1327,-2.1327,-2.1266,-2.1264,-2.1262,-2.1261,-2.1248,-2.1249,-2.125,0,0,0,0,0,0,0,0,0,0,0,0,0,-2.1319,-2.1319,-2.1342,-2.1309,-2.1306,-2.1328,-2.1327,-2.1327,-2.1266,-2.1264,-2.1262,-2.126,-2.1248,-2.1249,-2.1251,-2.1303,0,0,-2.1255,-2.1256,0,0,0,0,0,0,0,0,-2.1319,-2.132,-2.1314,-2.1311,-2.1308,-2.1296,-2.1314,-2.1319,-2.1267,-2.1281,-2.1261,-2.1259,-2.1266,-2.1266,-2.1268,-2.1303,-2.1302,-2.1255,-2.1256,-2.1257,-2.1257,0,0,0,0,0,0,0,-2.1319,-2.132,-2.1336,-2.1314,-2.131,-2.1296,-2.1294,-2.1315,-2.1286,-2.128,-2.1275,-2.1274,-2.1264,-2.1267,-2.1267,-2.1302,-2.1255,-2.1257,-2.1258,-2.1258,-2.138,-2.1382,0,0,0,0,0,0,-2.1323,-2.132,-2.1337,-2.1336,-2.1308,-2.1298,-2.1295,-2.1302,-2.1286,-2.1281,-2.1276,-2.1272,-2.1265,-2.1266,-2.1267,-2.1327,-2.1257,-2.1258,-2.1259,-2.1377,-2.138,-2.1383,0,0,0,0,0,0,-2.1323,-2.1325,-2.1337,-2.1327,-2.1327,-2.1301,-2.1309,-2.1303,-2.1305,-2.1283,-2.1278,-2.1284,-2.1264,-2.1265,-2.1295,-2.1326,-2.1259,-2.126,-2.1375,-2.1378,-2.1382,-2.1449,0,0,0,0,0,0,-2.1322,-2.1325,-2.1344,-2.1328,-2.1328,-2.1365,-2.1311,-2.1304,-2.1308,-2.1302,-2.1289,-2.1285,-2.1262,-2.1293,-2.1296,-2.1327,-2.1261,-2.1372,-2.1376,-2.138,-2.1443,-2.1454,-2.1463,0,0,0,0,0,-2.1322,-2.1364,-2.1346,-2.1348,-2.1351,-2.1367,-2.1367,-2.1339,-2.1311,-2.133,-2.1316,-2.1285,-2.1322,-2.1296,-2.13,-2.1331,-2.137,-2.1375,-2.138,-2.1439,-2.1452,-2.1463,0,0,0,0,0,0,-2.1385,-2.1361,-2.134,-2.1378,-2.1375,-2.1356,-2.1379,-2.1354,-2.1358,-2.1352,-2.1319,-2.1316,-2.1352,-2.1345,-2.1316,-2.1382,-2.1341,-2.1347,-2.1385,-2.1397,-2.1406,-2.1407,-2.1263,0,0,0,0,0,-2.1403,-2.1417,-2.1396,-2.1432,-2.1431,-2.1406,-2.1412,-2.1391,-2.1386,-2.1384,-2.1372,-2.137,-2.1381,-2.1388,-2.1397,-2.1443,-2.1439,-2.1466,-2.1476,-2.1484,-2.149,-2.1514,-2.1525,-2.14,-2.14,-2.14,0,0,-2.1441,-2.143,-2.1441,-2.1444,-2.1439,-2.1455,-2.1405,-2.1424,-2.1435,-2.1387,-2.1415,-2.1406,-2.1401,-2.1439,-2.1455,-2.1434,-2.1524,-2.1491,-2.1498,-2.1498,-2.152,-2.1532,-2.1543,-2.1404,-2.1403,-2.1402,0,0,-2.1518,-2.1511,-2.154,-2.1536,-2.1529,-2.1513,-2.152,-2.1505,-2.1498,-2.1525,-2.1489,-2.1504,-2.1523,-2.1521,-2.1523,-2.1601,-2.1573,-2.1605,-2.1656,-2.168,-2.169,-2.1698,-2.1726,-2.1736,-2.1611,-2.1611,-2.1611,0,-2.1566,-2.1588,-2.1558,-2.158,-2.1582,-2.154,-2.157,-2.1568,-2.1565,-2.1568,-2.1544,-2.1569,-2.1562,-2.16,-2.1619,-2.1622,-2.1629,-2.1606,-2.169,-2.1699,-2.1706,-2.1733,-2.1743,-2.1615,-2.1615,-2.1614,-2.1614,0,-2.1647,-2.1663,-2.1688,-2.1685,-2.1691,-2.1717,-2.1692,-2.1701,-2.1681,-2.1667,-2.1696,-2.1687,-2.1694,-2.1702,-2.1682,-2.1737,-2.1724,-2.1696,-2.1654,-2.1723,-2.1747,-2.1757,-2.1621,-2.1619,-2.1618,-2.1617,0,0,-2.1761,-2.1744,-2.1753,-2.1752,-2.1742,-2.1754,-2.1779,-2.1785,-2.1794,-2.1794,-2.1814,-2.1832,-2.1807,-2.1809,-2.1789,-2.181,-2.1873,-2.178,-2.1779,-2.1797,-2.1933,-2.1954,-2.1966,-2.1855,-2.1857,-2.1859,-2.1934,0,-2.1835,-2.1874,-2.1849,-2.1892,-2.1907,-2.1869,-2.189,-2.1887,-2.1875,-2.1887,-2.1875,-2.1888,-2.1854,-2.1855,-2.1874,-2.1861,-2.19,-2.1856,-2.1874,-2.1875,-2.1875,-2.1978,-2.1999,-2.207,-2.1943,-2.1945,-2.1946,0,-2.1924,-2.1928,-2.1973,-2.1961,-2.1967,-2.1986,-2.199,-2.2002,-2.1999,-2.1989,-2.1992,-2.1967,-2.1991,-2.1951,-2.1984,-2.1955,-2.1961,-2.1956,-2.1959,-2.1958,-2.1913,-2.198,-2.2092,-2.2103,-2.196,-2.1959,-2.1958,0,-2.2002,-2.2019,-2.2048,-2.2048,-2.2036,-2.205,-2.2046,-2.204,-2.2046,-2.2051,-2.2054,-2.2062,-2.2066,-2.2073,-2.2051,-2.2024,-2.2087,-2.2045,-2.208,-2.208,-2.2093,-2.2093,-2.2208,-2.21,-2.21,-2.2099,-2.2099,0,-2.2086,-2.2115,-2.2083,-2.2101,-2.2133,-2.2105,-2.2138,-2.2129,-2.2125,-2.2141,-2.2109,-2.2125,-2.2096,-2.211,-2.2093,-2.2123,-2.2125,-2.2118,-2.2113,-2.2121,-2.2121,-2.2123,-2.2117,-2.2102,-2.2101,-2.2101,-2.21,0,-2.2177,-2.2157,-2.2187,-2.2173,-2.217,-2.2194,-2.2183,-2.2199,-2.2186,-2.2207,-2.2211,-2.2191,-2.2205,-2.2185,-2.2197,-2.2186,-2.2227,-2.2215,-2.2228,-2.2224,-2.226,-2.2256,-2.2379,-2.2393,-2.2277,-2.2278,-2.2279,0,-2.2231,-2.2253,-2.2241,-2.225,-2.2247,-2.2261,-2.2267,-2.2241,-2.2249,-2.2248,-2.2265,-2.2276,-2.2284,-2.2309,-2.2296,-2.2306,-2.2294,-2.2336,-2.2295,-2.2301,-2.2293,-2.2292,-2.2294,-2.2344,-2.2345,-2.2346,-2.2347,0,-2.2329,-2.2318,-2.2327,-2.2334,-2.2342,-2.2346,-2.2348,-2.2357,-2.233,-2.2341,-2.2355,-2.2361,-2.2374,-2.2386,-2.2393,-2.2389,-2.2364,-2.2361,-2.2369,-2.2376,-2.2382,-2.2379,-2.225,-2.2358,-2.2357,-2.2356,-2.2355,-2.2355,-2.2402,-2.242,-2.2415,-2.2427,-2.2426,-2.2429,-2.2443,-2.2433,-2.2444,-2.2452,-2.2437,-2.2455,-2.2453,-2.2459,-2.2458,-2.2473,-2.2455,-2.2467,-2.247,-2.2473,-2.2478,-2.2381,-2.2474,-2.2474,-2.2474,-2.2473,-2.2473,0,-2.2498,-2.2493,-2.2504,-2.2508,-2.2518,-2.2494,-2.2495,-2.2505,-2.2521,-2.2521,-2.253,-2.2547,-2.2559,-2.2548,-2.2558,-2.2572,-2.2561,-2.2575,-2.2573,-2.2573,-2.2494,-2.2486,-2.2584,-2.2584,-2.2584,-2.2584,-2.2584,-2.2584,-2.2548,-2.2577,-2.2566,-2.2594,-2.2589,-2.2607,-2.2609,-2.2612,-2.2612,-2.2632,-2.2642,-2.2635,-2.263,-2.264,-2.2651,-2.2647,-2.2652,-2.2671,-2.2663,-2.259,-2.2579,-2.2568,-2.256,-2.2672,-2.2673,-2.2741,-2.2741,-2.2742]},{"header":{"parameterUnit":"m.s-1","parameterCategory":1,"la1":30.2991,"la2":30.254,"lo1":-89.0895,"lo2":-89.0444,"dy":0.0017,"dx":0.0017,"nx":28,"ny":28,"refTime":"2024-04-14T09:00:00:Z","depth":0,"parameterNumber":3,"parameterNumberName":"V-component_of_WINDS"},"data":[0,0,0,0,0,0,0,0,0,0,0,0,0,0,0,0,0,0,0,0,0,0,0,0,0,0,0,0,0,0,0,0,0,0,0,0,0,0,0,0,0,0,0,0,0,0,0,0,0,0,0,0,0,0,0,0,0,0,3.1395,3.1395,0,3.1389,3.1389,3.1389,3.1389,3.1389,3.1389,3.1389,3.1381,3.1381,3.1381,0,0,0,0,0,0,0,0,0,0,0,0,0,3.1404,3.1404,3.1395,3.1395,3.1395,3.1389,3.1389,3.1389,3.1389,3.1389,3.1389,3.1389,3.1381,3.1381,3.138,0,0,0,0,0,0,0,0,0,0,0,0,0,3.1399,3.1404,3.1395,3.1394,3.1394,3.1389,3.1389,3.1389,3.1389,3.1389,3.1389,3.1389,3.1381,3.1381,3.138,3.1376,0,0,3.1379,3.1379,0,0,0,0,0,0,0,0,3.1399,3.1399,3.1394,3.1394,3.1394,3.139,3.1389,3.1385,3.1389,3.1391,3.1389,3.1389,3.1384,3.1383,3.1382,3.1375,3.1375,3.1379,3.1379,3.1379,3.1379,0,0,0,0,0,0,0,3.14,3.1399,3.1393,3.1394,3.1394,3.1393,3.1393,3.1389,3.1387,3.139,3.139,3.139,3.1384,3.1382,3.1382,3.1375,3.1379,3.1379,3.1379,3.1378,3.1365,3.1365,0,0,0,0,0,0,3.14,3.1399,3.1393,3.1392,3.1397,3.1393,3.1393,3.1391,3.1387,3.1386,3.139,3.139,3.1383,3.1382,3.1381,3.1376,3.1379,3.1378,3.1378,3.1365,3.1365,3.1365,0,0,0,0,0,0,3.1401,3.14,3.1393,3.1396,3.1395,3.1393,3.1391,3.1391,3.1389,3.1386,3.1386,3.1389,3.1383,3.1382,3.1378,3.1376,3.1378,3.1378,3.1366,3.1365,3.1365,3.1365,0,0,0,0,0,0,3.1401,3.14,3.1398,3.1396,3.1395,3.139,3.1391,3.1391,3.1389,3.1389,3.1385,3.1384,3.1383,3.1378,3.1377,3.1375,3.1377,3.1366,3.1365,3.1365,3.1365,3.1365,3.1365,0,0,0,0,0,3.1401,3.1398,3.1398,3.1397,3.1393,3.1389,3.1389,3.1388,3.1389,3.1387,3.1385,3.1385,3.1376,3.1378,3.1377,3.1375,3.1366,3.1366,3.1365,3.1366,3.1365,3.1365,0,0,0,0,0,0,3.1399,3.1397,3.1398,3.1394,3.1392,3.1389,3.1387,3.1387,3.1384,3.1385,3.1383,3.1382,3.1378,3.1376,3.1377,3.137,3.1371,3.1371,3.1372,3.1371,3.1371,3.1372,3.1377,0,0,0,0,0,3.1398,3.1396,3.1395,3.1391,3.139,3.1389,3.1387,3.1387,3.1385,3.1384,3.1381,3.1379,3.1376,3.1373,3.137,3.1365,3.1365,3.1364,3.1363,3.1363,3.1363,3.1361,3.136,3.1365,3.1365,3.1365,0,0,3.1396,3.1395,3.1394,3.1391,3.1389,3.1387,3.1388,3.1385,3.1384,3.1383,3.1379,3.1377,3.1374,3.137,3.1368,3.1368,3.1362,3.1363,3.1363,3.1362,3.136,3.136,3.136,3.1364,3.1364,3.1364,0,0,3.1391,3.139,3.1388,3.1387,3.1385,3.1384,3.1384,3.1381,3.1381,3.1377,3.1377,3.1374,3.1369,3.1367,3.1365,3.1361,3.1361,3.136,3.1359,3.1357,3.1357,3.1356,3.1355,3.1355,3.136,3.136,3.136,0,3.1389,3.1386,3.1386,3.1384,3.1383,3.1383,3.138,3.1379,3.1376,3.1375,3.1376,3.137,3.1367,3.1363,3.1362,3.1361,3.136,3.136,3.1357,3.1357,3.1356,3.1355,3.1355,3.136,3.136,3.136,3.136,0,3.1383,3.1381,3.1379,3.1377,3.1376,3.1373,3.1373,3.1371,3.1372,3.1371,3.1367,3.1365,3.1362,3.1361,3.136,3.1357,3.1357,3.1357,3.1358,3.1356,3.1355,3.1354,3.136,3.136,3.136,3.136,0,0,3.1376,3.1375,3.1374,3.1374,3.1373,3.1371,3.1369,3.1367,3.1366,3.1364,3.1362,3.1358,3.1359,3.1357,3.1356,3.1354,3.1352,3.1355,3.1355,3.1355,3.1349,3.1349,3.1348,3.1352,3.1352,3.1352,3.1349,0,3.1371,3.1367,3.1368,3.1364,3.1363,3.1364,3.1362,3.1361,3.1361,3.1359,3.1358,3.1356,3.1356,3.1355,3.1354,3.1353,3.1351,3.1353,3.135,3.135,3.1351,3.1347,3.1347,3.1344,3.1349,3.1349,3.1349,0,3.1364,3.1364,3.136,3.136,3.136,3.1358,3.1357,3.1355,3.1354,3.1354,3.1353,3.1353,3.135,3.1352,3.1348,3.135,3.1349,3.1348,3.1348,3.1347,3.1349,3.1347,3.1343,3.1343,3.1348,3.1348,3.1348,0,3.136,3.1358,3.1356,3.1355,3.1355,3.1354,3.1354,3.1353,3.1352,3.1351,3.135,3.1349,3.1348,3.1346,3.1346,3.1347,3.1343,3.1344,3.1343,3.1343,3.1341,3.1341,3.1337,3.1341,3.1341,3.1341,3.1341,0,3.1354,3.1352,3.1354,3.1353,3.135,3.1351,3.1349,3.1349,3.1349,3.1347,3.1348,3.1347,3.1346,3.1345,3.1344,3.1342,3.1342,3.1341,3.1341,3.1341,3.1341,3.134,3.134,3.1341,3.1341,3.1341,3.1341,0,3.1348,3.1349,3.1347,3.1348,3.1348,3.1347,3.1347,3.1346,3.1346,3.1344,3.1344,3.1344,3.1343,3.1342,3.134,3.134,3.1337,3.1337,3.1338,3.1338,3.1337,3.1337,3.1332,3.1332,3.1335,3.1335,3.1335,0,3.1345,3.1343,3.1344,3.1344,3.1344,3.1343,3.1343,3.1344,3.1343,3.1343,3.1342,3.134,3.1339,3.1337,3.1337,3.1335,3.1335,3.1334,3.1335,3.1335,3.1335,3.1336,3.1336,3.1333,3.1333,3.1333,3.1333,0,3.1338,3.1339,3.1339,3.1339,3.1338,3.1338,3.1338,3.1338,3.1339,3.1338,3.1337,3.1337,3.1335,3.1334,3.1333,3.1333,3.1333,3.1333,3.1333,3.1332,3.1333,3.1333,3.1337,3.1333,3.1333,3.1333,3.1333,3.1333,3.1333,3.1333,3.1333,3.1333,3.1334,3.1334,3.1333,3.1334,3.1333,3.1333,3.1334,3.1333,3.1332,3.1331,3.1331,3.133,3.133,3.133,3.133,3.1329,3.133,3.1334,3.133,3.133,3.133,3.133,3.133,0,3.1327,3.1328,3.1328,3.1328,3.1328,3.133,3.133,3.133,3.1329,3.133,3.1329,3.1329,3.1328,3.1328,3.1327,3.1327,3.1327,3.1327,3.1327,3.1327,3.1329,3.133,3.1326,3.1326,3.1326,3.1326,3.1326,3.1326,3.1324,3.1323,3.1324,3.1323,3.1324,3.1324,3.1324,3.1325,3.1325,3.1324,3.1324,3.1325,3.1325,3.1325,3.1324,3.1324,3.1324,3.1324,3.1324,3.1326,3.1326,3.1327,3.1327,3.1324,3.1324,3.1321,3.1321,3.1321]}]]